EW4321 Weather Reports


time (UTC)temp
C
wind
direction
speed
KPH
gust
KPH
rain 1hr
cm
rain 24hr
cm
rain mn
cm
humidity
%
barometer
mb
20260502140106 12 27 3.2 6.4 0.00 0.00 0.00 83 1013.4
20260502130606 12 298 4.8 14.5 0.00 0.00 0.00 87 1013.5
20260502130106 12 290 6.4 14.5 0.00 0.00 0.00 87 1013.5
20260502123607 11 299 11.3 17.7 0.00 0.00 0.00 89 1013.6
20260502123106 11 281 14.5 17.7 0.00 0.00 0.00 88 1013.6
20260502122606 11 274 14.5 19.3 0.00 0.00 0.00 89 1013.7
20260502122107 11 267 16.1 19.3 0.00 0.00 0.00 89 1013.6
20260502121648 11 277 14.5 17.7 0.00 0.00 0.00 88 1013.5
20260502121106 11 271 12.9 14.5 0.00 0.00 0.00 89 1013.4
20260502120607 11 271 11.3 14.5 0.00 0.00 0.00 90 1013.3
20260502120107 11 267 9.7 14.5 0.00 0.00 0.00 90 1013.4
20260502115606 11 252 9.7 12.9 0.00 0.00 0.00 89 1013.5
20260502115107 11 235 8.0 12.9 0.00 0.00 0.00 90 1013.6
20260502114607 11 275 8.0 14.5 0.00 0.00 0.00 90 1013.6
20260502114106 11 251 9.7 17.7 0.00 0.00 0.00 90 1013.5
20260502113606 11 265 11.3 17.7 0.00 0.00 0.00 90 1013.5
20260502113106 11 267 12.9 17.7 0.00 0.00 0.00 90 1013.5
20260502112606 11 263 12.9 19.3 0.00 0.00 0.00 90 1013.5
20260502112106 11 268 16.1 19.3 0.00 0.00 0.00 90 1013.5
20260502111606 11 260 12.9 19.3 0.00 0.00 0.00 91 1013.4
20260502111106 11 263 16.1 19.3 0.00 0.00 0.00 91 1013.4
20260502110628 11 253 12.9 14.5 0.00 0.00 0.00 92 1013.4
20260502110106 11 254 11.3 16.1 0.00 0.00 0.00 92 1013.3
20260502105609 11 263 12.9 16.1 0.00 0.00 0.00 91 1013.3
20260502105106 11 259 11.3 14.5 0.00 0.00 0.00 91 1013.1
20260502104606 10 251 8.0 12.9 0.00 0.00 0.00 92 1013.1
20260502104106 10 233 6.4 11.3 0.00 0.00 0.00 91 1013.0
20260502103607 10 224 8.0 11.3 0.00 0.00 0.00 92 1013.0
20260502103106 10 213 6.4 14.5 0.00 0.00 0.00 92 1012.8
20260502102606 10 236 9.7 14.5 0.00 0.00 0.00 93 1012.9
20260502102107 10 239 6.4 12.9 0.00 0.00 0.00 94 1012.8
20260502101628 10 246 6.4 12.9 0.00 0.00 0.00 94 1012.9
20260502101127 10 241 8.0 12.9 0.00 0.00 0.00 94 1012.9
20260502100606 10 235 8.0 11.3 0.00 0.00 0.00 95 1012.9
20260502100106 10 222 4.8 8.0 0.00 0.00 0.00 94 1012.9
20260502091106 10 227 6.4 12.9 0.00 0.00 0.00 94 1013.0
20260502090627 10 213 8.0 14.5 0.00 0.00 0.00 94 1012.9
20260502090106 10 209 8.0 14.5 0.00 0.00 0.00 94 1012.9
20260502080106 10 218 11.3 19.3 0.00 0.00 0.00 93 1013.1
20260502071127 10 183 11.3 22.5 0.00 0.00 0.00 93 1013.3
20260502070606 10 194 12.9 24.1 0.00 0.00 0.00 93 1013.4
20260502070106 10 191 12.9 24.1 0.00 0.00 0.00 93 1013.3
20260502065606 10 187 16.1 24.1 0.00 0.00 0.00 92 1013.4
20260502065106 10 194 14.5 24.1 0.00 0.00 0.00 92 1013.5
20260502064606 10 192 16.1 24.1 0.00 0.00 0.00 92 1013.4
20260502064108 10 189 14.5 24.1 0.00 0.00 0.00 92 1013.3
20260502063606 10 195 14.5 29.0 0.00 0.00 0.00 91 1013.4
20260502063105 10 191 17.7 30.6 0.00 0.00 0.00 91 1013.5
20260502062630 10 188 17.7 30.6 0.00 0.00 0.00 91 1013.5
20260502062106 10 192 14.5 24.1 0.00 0.00 0.00 90 1013.4
20260502061606 10 190 14.5 25.7 0.00 0.00 0.00 90 1013.5
20260502061106 10 198 16.1 25.7 0.00 0.00 0.00 90 1013.7
20260502060606 10 197 12.9 24.1 0.00 0.00 0.00 90 1013.7
20260502060106 10 190 12.9 24.1 0.00 0.00 0.00 90 1013.7
20260502055606 10 193 16.1 27.4 0.00 0.00 0.00 90 1013.8
20260502055127 10 194 17.7 29.0 0.00 0.00 0.00 90 1013.9
20260502054606 10 197 19.3 29.0 0.00 0.00 0.00 90 1014.0
20260502054106 10 199 19.3 29.0 0.00 0.00 0.00 90 1014.1
20260502053605 10 189 17.7 25.7 0.00 0.00 0.00 90 1014.2
20260502053106 10 198 16.1 29.0 0.00 0.00 0.00 90 1014.2
20260502052607 10 210 19.3 29.0 0.00 0.00 0.00 90 1014.3
20260502052106 10 194 17.7 27.4 0.00 0.00 0.00 90 1014.2
20260502051606 10 195 16.1 30.6 0.00 0.00 0.00 90 1014.2
20260502051106 10 189 14.5 30.6 0.00 0.00 0.00 90 1014.1
20260502050606 10 190 12.9 29.0 0.00 0.00 0.00 90 1014.2
20260502050106 10 199 17.7 29.0 0.00 0.00 0.00 89 1014.1
20260502045606 10 197 14.5 30.6 0.00 0.00 0.00 89 1014.2
20260502045106 10 190 19.3 37.0 0.00 0.00 0.00 89 1014.1
20260502044606 10 195 22.5 37.0 0.00 0.00 0.00 89 1014.2
20260502044106 10 193 20.9 33.8 0.00 0.00 0.00 89 1014.1
20260502043606 10 198 20.9 30.6 0.00 0.00 0.00 89 1014.0
20260502043106 10 192 20.9 30.6 0.00 0.00 0.00 90 1013.9
20260502042606 10 184 16.1 27.4 0.00 0.00 0.00 90 1013.7
20260502042106 10 184 19.3 27.4 0.00 0.00 0.00 90 1013.8
20260502041607 10 187 16.1 25.7 0.00 0.00 0.00 90 1013.9
20260502041128 10 188 17.7 27.4 0.00 0.00 0.00 90 1014.0
20260502040606 10 185 16.1 29.0 0.00 0.00 0.00 90 1014.1
20260502040106 10 195 14.5 29.0 0.00 0.00 0.00 90 1014.1
20260502035606 10 198 14.5 25.7 0.00 1.27 0.00 90 1014.1
20260502035107 10 197 14.5 25.7 0.00 0.00 0.00 90 1014.0
20260502034606 10 192 17.7 25.7 0.00 0.00 0.00 91 1013.9
20260502034105 10 186 14.5 25.7 0.00 0.00 0.00 91 1013.8
20260502033606 10 183 14.5 25.7 0.00 0.00 0.00 90 1013.5
20260502033106 10 180 12.9 22.5 0.00 0.00 0.00 90 1013.6
20260502032606 10 184 16.1 25.7 0.00 0.00 0.00 90 1013.7
20260502032106 10 182 16.1 27.4 0.00 0.00 0.00 90 1014.0
20260502031606 10 174 17.7 27.4 0.00 0.00 0.00 90 1014.0
20260502031127 10 178 17.7 27.4 0.00 0.00 0.00 90 1014.0
20260502030606 10 180 14.5 29.0 0.00 0.00 0.00 90 1014.1
20260502025606 10 182 19.3 29.0 0.00 0.00 0.00 89 1014.0
20260502025106 10 189 16.1 32.2 0.00 0.00 0.00 89 1014.2
20260502024606 10 194 19.3 32.2 0.00 0.00 0.00 89 1014.5
20260502023606 10 192 17.7 32.2 0.00 0.00 0.00 89 1014.6
20260502023106 10 191 14.5 32.2 0.00 0.00 0.00 89 1014.6
20260502022606 10 191 16.1 29.0 0.00 0.00 0.00 89 1014.6
20260502022106 10 184 17.7 29.0 0.00 0.00 0.00 88 1014.7
20260502021606 10 183 20.9 29.0 0.00 0.00 0.00 88 1014.7
20260502021106 10 187 19.3 29.0 0.00 0.00 0.00 88 1014.7
20260502020605 10 197 14.5 38.6 0.00 0.00 0.00 88 1014.6
20260502020106 10 184 17.7 38.6 0.00 0.00 0.00 88 1014.5
20260502015606 10 187 17.7 32.2 0.00 0.00 0.00 88 1014.4
20260502015106 10 188 19.3 32.2 0.00 0.00 0.00 88 1014.4
20260502014606 10 187 14.5 27.4 0.00 0.00 0.00 88 1014.3
20260502014106 10 184 16.1 27.4 0.00 0.00 0.00 88 1014.2
20260502013606 10 177 19.3 25.7 0.00 0.00 0.00 88 1014.3
20260502013106 10 185 19.3 25.7 0.00 0.00 0.00 88 1014.3
20260502012606 10 190 17.7 25.7 0.00 0.00 0.00 87 1014.2
20260502012106 10 187 14.5 25.7 0.00 0.00 0.00 87 1014.3
20260502011605 10 195 14.5 25.7 0.00 0.00 0.00 87 1014.3
20260502011106 10 188 14.5 27.4 0.00 0.00 0.00 87 1014.3
20260502010605 10 192 16.1 27.4 0.00 0.00 0.00 86 1014.1
20260502010106 10 188 16.1 27.4 0.00 0.00 0.00 86 1014.2
20260502005606 10 189 17.7 27.4 0.00 0.00 0.00 86 1014.1
20260502005106 10 188 17.7 22.5 0.00 0.00 0.00 86 1013.9
20260502004607 10 189 14.5 24.1 0.00 0.00 0.00 85 1013.9
20260502004106 10 184 16.1 24.1 0.00 0.00 0.00 85 1013.9
20260502003606 10 190 16.1 24.1 0.00 0.00 0.00 85 1013.8
20260502003106 10 186 16.1 30.6 0.00 0.00 0.00 84 1013.8
20260502002605 10 197 19.3 32.2 0.00 0.00 0.00 84 1013.8
20260502002106 10 189 19.3 32.2 0.00 0.00 0.00 84 1013.8
20260502001606 10 189 17.7 30.6 0.00 0.00 0.00 83 1013.6
20260502001106 10 194 22.5 33.8 0.00 0.00 0.00 83 1013.7
20260502000627 10 191 24.1 35.4 0.00 0.00 0.00 83 1013.5
20260502000107 10 189 20.9 35.4 0.00 0.00 0.00 82 1013.5
20260501235606 10 191 20.9 35.4 0.00 0.00 0.00 82 1013.6
20260501235127 11 190 24.1 37.0 0.00 0.00 0.00 82 1013.5
20260501234627 11 187 20.9 37.0 0.00 0.00 0.00 82 1013.4
20260501234106 11 189 20.9 33.8 0.00 0.00 0.00 82 1013.4
20260501233627 11 196 20.9 33.8 0.00 0.00 0.00 82 1013.4
20260501233106 11 192 22.5 35.4 0.00 0.00 0.00 81 1013.4
20260501232628 11 188 20.9 35.4 0.00 0.00 0.00 81 1013.2
20260501232106 11 189 20.9 35.4 0.00 0.00 0.00 81 1013.1
20260501231606 11 199 25.7 35.4 0.00 0.00 0.00 81 1013.1
20260501231106 11 191 19.3 35.4 0.00 0.00 0.00 82 1013.1
20260501230606 12 191 20.9 38.6 0.00 0.00 0.00 81 1013.1
20260501230105 12 195 25.7 38.6 0.00 0.00 0.00 81 1013.0
20260501225606 12 195 24.1 37.0 0.00 0.00 0.00 81 1012.9
20260501225106 12 194 27.4 37.0 0.00 0.00 0.00 80 1012.9
20260501224606 12 194 22.5 37.0 0.00 0.00 0.00 80 1013.0
20260501224106 12 194 25.7 35.4 0.00 0.00 0.00 79 1012.9
20260501223606 12 184 20.9 37.0 0.00 0.00 0.00 81 1012.9
20260501223127 12 191 20.9 41.8 0.00 0.00 0.00 80 1012.9
20260501222627 12 183 27.4 41.8 0.00 0.00 0.00 80 1012.8
20260501222106 12 183 20.9 38.6 0.00 0.00 0.00 80 1012.8
20260501221606 12 176 25.7 38.6 0.00 0.00 0.00 79 1012.9
20260501221106 13 186 25.7 40.2 0.00 0.00 0.00 80 1012.9
20260501220606 13 179 22.5 40.2 0.00 0.00 0.00 80 1012.8
20260501220106 13 173 20.9 35.4 0.00 0.00 0.00 80 1012.8
20260501215628 13 176 20.9 37.0 0.00 0.00 0.00 79 1012.8
20260501215105 13 176 22.5 37.0 0.00 0.00 0.00 79 1012.7
20260501214606 13 176 24.1 35.4 0.00 0.00 0.00 78 1012.8
20260501214106 13 172 22.5 33.8 0.00 0.00 0.00 77 1012.8
20260501213606 13 180 20.9 33.8 0.00 0.00 0.00 77 1012.8
20260501213148 13 173 22.5 32.2 0.00 0.00 0.00 78 1012.8
20260501212606 13 178 22.5 32.2 0.00 0.00 0.00 78 1012.8
20260501211606 14 171 22.5 38.6 0.00 0.00 0.00 78 1012.8
20260501211127 14 171 24.1 37.0 0.00 0.00 0.00 77 1012.8
20260501210606 14 177 20.9 33.8 0.00 0.00 0.00 76 1012.9
20260501210106 15 168 22.5 27.4 0.00 0.00 0.00 76 1013.0
20260501205605 15 177 17.7 27.4 0.00 0.00 0.00 76 1013.0
20260501205106 15 177 14.5 27.4 0.00 0.00 0.00 76 1013.0
20260501204607 15 172 17.7 29.0 0.00 0.00 0.00 75 1013.0
20260501204105 15 185 14.5 29.0 0.00 0.00 0.00 77 1012.9
20260501203606 14 171 17.7 30.6 0.00 0.00 0.00 78 1012.9
20260501203106 14 167 19.3 30.6 0.00 0.00 0.00 77 1012.8
20260501202606 15 166 22.5 32.2 0.00 0.00 0.00 76 1012.9
20260501202106 15 164 20.9 32.2 0.00 0.00 0.00 76 1012.9
20260501201606 15 168 19.3 32.2 0.00 0.00 0.00 75 1013.0
20260501201106 15 164 22.5 32.2 0.00 0.00 0.00 74 1013.0
20260501200606 15 170 17.7 30.6 0.00 0.00 0.00 74 1013.0
20260501200127 15 167 17.7 30.6 0.00 0.00 0.00 76 1013.1
20260501195609 15 167 17.7 32.2 0.00 0.00 0.00 76 1013.2
20260501195126 15 172 20.9 32.2 0.00 0.00 0.00 75 1013.4
20260501194606 15 176 17.7 30.6 0.00 0.00 0.00 76 1013.4
20260501194106 15 170 19.3 30.6 0.00 0.00 0.00 75 1013.4
20260501193607 15 172 17.7 29.0 0.00 0.00 0.00 77 1013.4
20260501193127 15 170 20.9 29.0 0.00 0.00 0.00 76 1013.5
20260501192606 15 171 19.3 29.0 0.00 0.00 0.00 77 1013.6
20260501192127 14 172 20.9 32.2 0.00 0.00 0.00 77 1013.6
20260501191606 14 168 19.3 32.2 0.00 0.00 0.00 77 1013.6
20260501191127 14 173 20.9 30.6 0.00 0.00 0.00 76 1013.6
20260501190606 14 177 22.5 30.6 0.00 0.00 0.00 76 1013.7
20260501190105 14 179 19.3 37.0 0.00 0.00 0.00 77 1013.8
20260501185606 14 172 22.5 37.0 0.00 0.00 0.00 75 1013.9
20260501185105 14 178 24.1 35.4 0.00 0.00 0.00 74 1014.0
20260501184627 14 173 20.9 32.2 0.00 0.00 0.00 76 1014.0
20260501184106 14 173 20.9 32.2 0.00 0.00 0.00 75 1014.0
20260501183606 14 173 22.5 30.6 0.00 0.00 0.00 75 1014.1
20260501183106 14 174 22.5 30.6 0.00 0.00 0.00 76 1014.2
20260501182627 13 178 22.5 35.4 0.00 0.00 0.00 75 1014.1
20260501182106 14 174 22.5 35.4 0.00 0.00 0.00 75 1014.1
20260501181606 14 174 22.5 33.8 0.00 0.00 0.00 75 1014.1
20260501181105 14 178 20.9 33.8 0.00 0.00 0.00 75 1014.0
20260501180606 14 182 20.9 35.4 0.00 0.00 0.00 75 1014.1
20260501180106 14 174 22.5 35.4 0.00 0.00 0.00 74 1014.0
20260501175606 14 174 22.5 35.4 0.00 0.00 0.00 73 1014.0
20260501175127 15 175 19.3 30.6 0.00 0.00 0.00 71 1014.1
20260501174605 15 171 17.7 27.4 0.00 0.03 0.00 71 1014.1
20260501174129 15 166 17.7 29.0 0.00 0.03 0.00 72 1014.2
20260501173606 15 164 19.3 29.0 0.00 0.03 0.00 71 1014.2
20260501173105 15 163 17.7 27.4 0.00 0.03 0.00 70 1014.2
20260501172627 15 153 17.7 30.6 0.00 0.03 0.00 70 1014.2
20260501172106 15 152 14.5 30.6 0.00 0.03 0.00 70 1014.2
20260501171605 15 160 16.1 27.4 0.00 0.03 0.00 68 1014.2
20260501171106 15 156 17.7 30.6 0.00 0.03 0.00 69 1014.3
20260501170106 15 152 17.7 30.6 0.00 0.03 0.00 68 1014.3
20260501165605 15 155 17.7 30.6 0.00 0.03 0.00 69 1014.4
20260501165127 14 146 12.9 22.5 0.00 0.03 0.00 72 1014.4
20260501164606 14 144 14.5 20.9 0.00 0.03 0.00 71 1014.3
20260501164106 14 143 16.1 22.5 0.00 0.03 0.00 71 1014.5
20260501163606 14 145 14.5 22.5 0.00 0.03 0.00 70 1014.5
20260501163105 14 138 16.1 20.9 0.00 0.03 0.00 70 1014.5
20260501162606 15 130 16.1 19.3 0.00 0.03 0.00 70 1014.6
20260501162105 15 127 12.9 19.3 0.00 0.03 0.00 68 1014.7
20260501161606 15 124 12.9 14.5 0.00 0.03 0.00 67 1014.7
20260501161105 15 123 4.8 16.1 0.00 0.03 0.00 65 1014.7
20260501160606 15 124 11.3 16.1 0.00 0.03 0.00 67 1014.9
20260501160106 15 133 11.3 17.7 0.00 0.03 0.00 67 1015.0
20260501155606 15 139 12.9 17.7 0.00 0.03 0.00 66 1015.1
20260501155106 15 135 12.9 17.7 0.00 0.03 0.00 64 1015.1
20260501154605 15 151 9.7 17.7 0.00 0.03 0.00 66 1015.2
20260501154107 15 179 9.7 17.7 0.00 0.03 0.00 68 1015.3
20260501153627 14 169 9.7 17.7 0.00 0.03 0.00 70 1015.4
20260501153105 13 153 9.7 16.1 0.00 0.03 0.00 70 1015.5
20260501152627 13 308 1.6 9.7 0.00 0.03 0.00 65 1015.5
20260501152106 13 302 6.4 9.7 0.00 0.03 0.00 67 1015.5
20260501151606 13 302 4.8 9.7 0.00 0.03 0.00 69 1015.5
20260501151106 13 319 4.8 9.7 0.00 0.03 0.00 66 1015.5
20260501150607 13 310 4.8 9.7 0.00 0.03 0.00 69 1015.5
20260501150105 12 300 6.4 9.7 0.00 0.03 0.00 70 1015.5
20260501145606 12 322 4.8 9.7 0.00 0.03 0.00 68 1015.4
20260501145105 12 338 3.2 12.9 0.00 0.03 0.00 71 1015.3
20260501144606 12 313 6.4 12.9 0.00 0.03 0.00 69 1015.4
20260501144106 12 357 6.4 12.9 0.00 0.03 0.00 70 1015.3